Tracking 22124 objects as of 24-Jan-2021
HD Live streaming from Space Station
objects crossing your sky now

FORMOSAT 3E

Track FORMOSAT 3E now!
10-day predictions
FORMOSAT 3E is classified as:


NORAD ID: 29051
Int'l Code: 2006-011E
Perigee: 752.0 km
Apogee: 853.4 km
Inclination: 72.0 °
Period: 100.8 minutes
Semi major axis: 7173 km
RCS: 0.58 m2 (medium)
Launch date: April 15, 2006
Source: Taiwan (Republic of China) (ROC)
Launch site: AIR FORCE WESTERN TEST RANGE (AFWTR)
aabbcc
Your satellite tracking list
Your tracking list is empty




NASA's NSSDC Master Catalog

Two Line Element Set (TLE):
1 29051U 06011E   21023.95941848  .00000027  00000-0  26529-4 0  9998
2 29051  72.0060   5.0942 0070642 263.7072  95.6015 14.28862396773653
Source of the keplerian elements: AFSPC